When you browse on this site, cookies collect data to enhance your experience and personalize the content and advertising you see.
Visit our Privacy Policy to learn more. By continuing to use the site, you agree to this use of cookies and data.
  • In Switzerland
  • List of Countries
  • For 7 days
  • Water Temperature
  • Satellite Maps
  • Weather Map
  • Weather Widgets
  • user-avatar
    Login

    Hourly Weather Melbourne

    Today, 10 December, Monday

    Time Temperature Precipitation Wind Pressure Humidity
    00:00 +15°C° 0 mm 1 mps 760 mmHg 86%
    01:00 +15°C° 0 mm 1 mps 760 mmHg 87%
    02:00 +15°C° 0 mm 2 mps 760 mmHg 89%
    03:00 +14°C° 0 mm 2 mps 760 mmHg 91%
    04:00 +14°C° 0 mm 1 mps 760 mmHg 93%
    05:00 +15°C° 0 mm 2 mps 761 mmHg 91%
    06:00 +16°C° 0 mm 2 mps 761 mmHg 89%
    07:00 +16°C° 0 mm 2 mps 762 mmHg 87%
    08:00 +18°C° 0 mm 2 mps 762 mmHg 79%
    09:00 +19°C° 0 mm 3 mps 762 mmHg 70%
    10:00 +21°C° 0 mm 3 mps 762 mmHg 61%
    11:00 +22°C° 0 mm 3 mps 762 mmHg 55%
    12:00 +23°C° 0 mm 4 mps 762 mmHg 49%
    13:00 +25°C° 0 mm 4 mps 761 mmHg 43%
    14:00 +25°C° 0 mm 4 mps 761 mmHg 43%
    15:00 +23°C° 0 mm 4 mps 761 mmHg 42%
    16:00 +23°C° 0 mm 4 mps 761 mmHg 42%
    17:00 +21°C° 0 mm 4 mps 761 mmHg 48%
    18:00 +20°C° 0 mm 4 mps 761 mmHg 54%
    19:00 +19°C° 0 mm 3 mps 762 mmHg 60%
    20:00 +17°C° 0 mm 3 mps 762 mmHg 68%
    21:00 +16°C° 0 mm 3 mps 762 mmHg 77%
    22:00 +14°C° 0 mm 2 mps 763 mmHg 85%
    23:00 +14°C° 0 mm 2 mps 763 mmHg 88%

    Tomorrow, 11 December, Tuesday

    Time Temperature Precipitation Wind Pressure Humidity
    00:00 +14°C° 0 mm 2 mps 762 mmHg 91%
    01:00 +13°C° 0 mm 2 mps 762 mmHg 93%
    02:00 +13°C° 0 mm 2 mps 762 mmHg 93%
    03:00 +13°C° 0 mm 2 mps 762 mmHg 93%
    04:00 +13°C° 0 mm 2 mps 761 mmHg 92%
    05:00 +14°C° 0 mm 2 mps 761 mmHg 87%
    06:00 +15°C° 0 mm 2 mps 761 mmHg 81%
    07:00 +16°C° 0 mm 2 mps 761 mmHg 76%
    08:00 +19°C° 0 mm 2 mps 761 mmHg 66%
    09:00 +21°C° 0 mm 2 mps 761 mmHg 57%
    10:00 +24°C° 0 mm 2 mps 761 mmHg 47%
    11:00 +26°C° 0 mm 2 mps 760 mmHg 44%
    12:00 +27°C° 0 mm 2 mps 760 mmHg 41%
    13:00 +29°C° 0 mm 2 mps 759 mmHg 37%
    14:00 +28°C° 0 mm 3 mps 759 mmHg 39%
    15:00 +28°C° 0 mm 4 mps 758 mmHg 41%
    16:00 +28°C° 0 mm 4 mps 758 mmHg 42%
    17:00 +26°C° 0 mm 4 mps 758 mmHg 48%
    18:00 +24°C° 0 mm 3 mps 758 mmHg 54%
    19:00 +22°C° 0 mm 3 mps 758 mmHg 61%
    20:00 +20°C° 0 mm 2 mps 758 mmHg 65%
    21:00 +19°C° 0 mm 2 mps 758 mmHg 70%
    22:00 +19°C° 0 mm 1 mps 758 mmHg 75%
    23:00 +18°C° 0 mm 1 mps 758 mmHg 76%

    Day after tomorrow, 12 December, Wednesday

    Time Temperature Precipitation Wind Pressure Humidity
    00:00 +18°C° 0 mm 1 mps 757 mmHg 78%
    01:00 +18°C° 0 mm 1 mps 757 mmHg 79%
    02:00 +18°C° 0 mm 1 mps 756 mmHg 80%
    03:00 +18°C° 0 mm 1 mps 756 mmHg 81%
    04:00 +18°C° 0 mm 1 mps 755 mmHg 82%
    05:00 +19°C° 0 mm 2 mps 755 mmHg 78%
    06:00 +21°C° 0 mm 3 mps 755 mmHg 73%
    07:00 +23°C° 0 mm 4 mps 755 mmHg 69%
    08:00 +26°C° 0 mm 4 mps 755 mmHg 61%
    09:00 +28°C° 0 mm 4 mps 754 mmHg 54%
    10:00 +32°C° 0 mm 4 mps 754 mmHg 47%
    11:00 +33°C° 0 mm 4 mps 753 mmHg 41%
    12:00 +34°C° 0 mm 4 mps 752 mmHg 35%
    13:00 +36°C° 0 mm 4 mps 752 mmHg 29%
    14:00 +36°C° 0 mm 4 mps 751 mmHg 29%
    15:00 +36°C° 0 mm 4 mps 750 mmHg 29%
    16:00 +36°C° 0 mm 3 mps 749 mmHg 28%
    17:00 +33°C° 0.3 mm 3 mps 749 mmHg 40%
    18:00 +29°C° 0.3 mm 3 mps 749 mmHg 53%
    19:00 +27°C° 0.3 mm 3 mps 749 mmHg 65%
    20:00 +26°C° 0.3 mm 4 mps 749 mmHg 67%
    21:00 +25°C° 0.3 mm 4 mps 749 mmHg 69%
    22:00 +23°C° 0.3 mm 4 mps 750 mmHg 72%
    23:00 +22°C° 2.6 mm 3 mps 749 mmHg 78%

    13 December, Thursday

    Time Temperature Precipitation Wind Pressure Humidity
    00:00 +23°C° 2.6 mm 2 mps 749 mmHg 85%
    01:00 +22°C° 2.6 mm 1 mps 749 mmHg 92%
    02:00 +21°C° 0.7 mm 2 mps 748 mmHg 92%
    03:00 +21°C° 0.7 mm 2 mps 748 mmHg 92%
    04:00 +20°C° 0.7 mm 2 mps 748 mmHg 93%
    05:00 +21°C° 1.3 mm 3 mps 748 mmHg 91%
    06:00 +21°C° 1.3 mm 3 mps 748 mmHg 90%
    07:00 +21°C° 1.3 mm 3 mps 748 mmHg 88%
    08:00 +20°C° 1.7 mm 3 mps 748 mmHg 90%
    09:00 +19°C° 1.7 mm 3 mps 748 mmHg 92%
    10:00 +19°C° 1.7 mm 4 mps 748 mmHg 94%
    11:00 +18°C° 0.8 mm 4 mps 748 mmHg 93%
    12:00 +18°C° 0.8 mm 4 mps 748 mmHg 92%
    13:00 +17°C° 0.8 mm 4 mps 748 mmHg 91%
    14:00 +17°C° 0.2 mm 4 mps 747 mmHg 90%
    15:00 +18°C° 0.2 mm 4 mps 747 mmHg 90%
    16:00 +18°C° 0.2 mm 4 mps 747 mmHg 89%
    17:00 +17°C° 0.1 mm 4 mps 747 mmHg 90%
    18:00 +17°C° 0.1 mm 4 mps 747 mmHg 91%
    19:00 +16°C° 0.1 mm 5 mps 747 mmHg 92%
    20:00 +17°C° 0.4 mm 4 mps 747 mmHg 93%
    21:00 +17°C° 0.4 mm 4 mps 747 mmHg 95%
    22:00 +17°C° 0.4 mm 4 mps 747 mmHg 96%
    23:00 +17°C° 0.8 mm 4 mps 747 mmHg 96%

    14 December, Friday

    Time Temperature Precipitation Wind Pressure Humidity
    00:00 +18°C° 0.8 mm 4 mps 746 mmHg 96%
    01:00 +17°C° 0.8 mm 5 mps 746 mmHg 97%
    02:00 +18°C° 0.2 mm 4 mps 746 mmHg 97%
    03:00 +18°C° 0.2 mm 4 mps 746 mmHg 97%
    04:00 +19°C° 0.2 mm 4 mps 746 mmHg 97%
    05:00 +19°C° 0.3 mm 4 mps 747 mmHg 97%
    06:00 +19°C° 0.3 mm 4 mps 747 mmHg 96%
    07:00 +19°C° 0.3 mm 4 mps 748 mmHg 96%
    08:00 +20°C° 0.3 mm 4 mps 748 mmHg 94%
    09:00 +21°C° 0.3 mm 5 mps 748 mmHg 93%
    10:00 +21°C° 0.3 mm 5 mps 749 mmHg 91%
    11:00 +21°C° 0.7 mm 6 mps 749 mmHg 91%
    12:00 +21°C° 0.7 mm 6 mps 749 mmHg 90%
    13:00 +22°C° 0.7 mm 7 mps 749 mmHg 89%
    14:00 +20°C° 3.2 mm 6 mps 749 mmHg 90%
    15:00 +19°C° 3.2 mm 5 mps 749 mmHg 91%
    16:00 +17°C° 3.2 mm 4 mps 749 mmHg 91%
    17:00 +17°C° 1.3 mm 3 mps 750 mmHg 92%
    18:00 +17°C° 1.3 mm 2 mps 750 mmHg 93%
    19:00 +17°C° 1.3 mm 2 mps 750 mmHg 94%
    20:00 +17°C° 1.5 mm 2 mps 751 mmHg 94%
    21:00 +16°C° 1.5 mm 2 mps 751 mmHg 93%
    22:00 +16°C° 1.5 mm 2 mps 751 mmHg 93%
    23:00 +16°C° 0 mm 1 mps 751 mmHg 93%

    15 December, Saturday

    Time Temperature Precipitation Wind Pressure Humidity
    00:00 +16°C° 0 mm 1 mps 751 mmHg 93%
    01:00 +16°C° 0 mm 1 mps 751 mmHg 93%
    02:00 +15°C° 0.3 mm 1 mps 751 mmHg 94%
    03:00 +15°C° 0.3 mm 1 mps 750 mmHg 94%
    04:00 +15°C° 0.3 mm 1 mps 750 mmHg 95%
    05:00 +16°C° 0.1 mm 1 mps 750 mmHg 94%
    06:00 +18°C° 0.1 mm 1 mps 750 mmHg 92%
    07:00 +19°C° 0.1 mm 1 mps 750 mmHg 91%
    08:00 +21°C° 0.1 mm 1 mps 750 mmHg 86%
    09:00 +21°C° 0.1 mm 2 mps 750 mmHg 81%
    10:00 +24°C° 0.1 mm 2 mps 750 mmHg 76%
    11:00 +24°C° 0.5 mm 2 mps 749 mmHg 72%
    12:00 +25°C° 0.5 mm 2 mps 749 mmHg 67%
    13:00 +26°C° 0.5 mm 2 mps 749 mmHg 63%
    14:00 +25°C° 2 mm 2 mps 748 mmHg 70%
    15:00 +24°C° 2 mm 2 mps 748 mmHg 77%
    16:00 +23°C° 2 mm 2 mps 748 mmHg 85%
    17:00 +21°C° 1.5 mm 2 mps 748 mmHg 87%
    18:00 +20°C° 1.5 mm 2 mps 749 mmHg 89%
    19:00 +19°C° 1.5 mm 2 mps 749 mmHg 91%
    20:00 +19°C° 0.1 mm 2 mps 749 mmHg 93%
    21:00 +18°C° 0.1 mm 2 mps 749 mmHg 94%
    22:00 +17°C° 0.1 mm 2 mps 749 mmHg 96%
    23:00 +17°C° 0.4 mm 2 mps 749 mmHg 95%
    Show more